TimeCDT,TemperatureF,Dew PointF,Humidity,Sea Level PressureIn,VisibilityMPH,Wind Direction,Wind SpeedMPH,Gust SpeedMPH,PrecipitationIn,Events,Conditions,WindDirDegrees,DateUTC
12:53 AM,61.0,59.0,93,29.97,10.0,Calm,Calm,-,N/A,,Clear,0,2012-10-26 05:53:00
1:53 AM,62.1,59.0,90,29.97,9.0,Calm,Calm,-,N/A,,Clear,0,2012-10-26 06:53:00
2:53 AM,61.0,57.9,90,29.96,8.0,ENE,3.5,-,N/A,,Clear,60,2012-10-26 07:53:00
3:53 AM,62.1,57.9,86,29.96,10.0,ENE,4.6,-,N/A,,Scattered Clouds,70,2012-10-26 08:53:00
4:53 AM,60.1,57.9,93,29.97,9.0,NNW,3.5,-,N/A,,Clear,330,2012-10-26 09:53:00
5:53 AM,60.1,57.0,90,29.98,7.0,Calm,Calm,-,N/A,,Clear,0,2012-10-26 10:53:00
6:53 AM,60.1,57.0,90,29.99,9.0,Calm,Calm,-,N/A,,Clear,0,2012-10-26 11:53:00
7:53 AM,64.0,59.0,84,30.01,7.0,NNE,3.5,-,N/A,,Clear,30,2012-10-26 12:53:00
8:53 AM,69.1,61.0,75,30.02,10.0,NNE,3.5,-,N/A,,Clear,20,2012-10-26 13:53:00
9:53 AM,75.0,64.0,69,30.02,10.0,ENE,6.9,-,N/A,,Clear,70,2012-10-26 14:53:00
10:53 AM,79.0,64.0,60,30.02,10.0,East,5.8,-,N/A,,Clear,80,2012-10-26 15:53:00
11:53 AM,82.0,62.1,51,30.00,10.0,East,6.9,-,N/A,,Mostly Cloudy,80,2012-10-26 16:53:00
12:53 PM,84.0,59.0,43,29.96,10.0,NNW,6.9,-,N/A,,Partly Cloudy,340,2012-10-26 17:53:00
1:53 PM,84.0,61.0,46,29.93,10.0,North,10.4,-,N/A,,Partly Cloudy,360,2012-10-26 18:53:00
2:53 PM,84.9,57.9,40,29.91,10.0,North,3.5,-,N/A,,Partly Cloudy,10,2012-10-26 19:53:00
3:53 PM,84.0,57.0,40,29.89,10.0,North,8.1,-,N/A,,Scattered Clouds,10,2012-10-26 20:53:00
4:53 PM,84.0,57.0,40,29.89,10.0,NNE,3.5,-,N/A,,Clear,20,2012-10-26 21:53:00
5:53 PM,78.1,57.9,50,29.90,10.0,NNW,3.5,-,N/A,,Clear,340,2012-10-26 22:53:00
6:53 PM,73.0,57.9,59,29.90,10.0,NNW,3.5,-,N/A,,Clear,340,2012-10-26 23:53:00
7:53 PM,69.1,59.0,70,29.91,10.0,Calm,Calm,-,N/A,,Clear,0,2012-10-27 00:53:00
8:53 PM,68.0,57.9,70,29.91,10.0,Calm,Calm,-,N/A,,Clear,0,2012-10-27 01:53:00
9:53 PM,64.9,57.9,78,29.92,10.0,WNW,9.2,-,N/A,,Mostly Cloudy,300,2012-10-27 02:53:00
10:53 PM,70.0,61.0,73,29.92,10.0,NW,8.1,-,N/A,,Mostly Cloudy,320,2012-10-27 03:53:00
11:53 PM,66.9,61.0,81,29.91,10.0,NW,5.8,-,N/A,,Clear,310,2012-10-27 04:53:00